FW8589 Weather Reports


time (UTC)temp
C
wind
direction
speed
KPH
gust
KPH
rain 1hr
cm
rain 24hr
cm
rain mn
cm
humidity
%
barometer
mb
20260504003017 13 68 8.0 11.3 0.00 0.00 0.00 87 1020.4
20260504002016 13 68 6.4 8.0 0.00 0.00 0.00 86 1020.4
20260504001017 13 68 6.4 6.4 0.00 0.00 0.00 86 1020.5
20260504000018 13 68 6.4 8.0 0.00 0.00 0.00 86 1020.5
20260503235019 13 68 4.8 6.4 0.00 0.00 0.00 86 1020.5
20260503234019 14 68 4.8 8.0 0.00 0.00 0.00 86 1020.6
20260503233017 14 45 6.4 8.0 0.00 0.00 0.00 86 1020.6
20260503232229 13 68 4.8 6.4 0.00 0.00 0.00 86 1020.6
20260503231230 14 68 6.4 8.0 0.00 0.00 0.00 85 1020.7
20260503230017 15 68 6.4 8.0 0.00 0.00 0.00 84 1020.7
20260503225017 15 45 4.8 6.4 0.00 0.00 0.00 83 1020.8
20260503224017 15 45 6.4 8.0 0.00 0.00 0.00 83 1020.9
20260503223017 15 45 4.8 6.4 0.00 0.00 0.00 83 1021.0
20260503222018 15 23 4.8 6.4 0.00 0.00 0.00 82 1021.0
20260503221018 15 23 4.8 8.0 0.00 0.00 0.00 83 1021.0
20260503220017 15 0 4.8 6.4 0.00 0.00 0.00 83 1021.1
20260503215441 15 0 4.8 6.4 0.00 0.00 0.00 83 1021.0
20260503214017 15 0 3.2 4.8 0.00 0.00 0.00 83 1021.0
20260503213017 15 0 4.8 6.4 0.00 0.00 0.00 83 1021.0
20260503212017 15 0 4.8 6.4 0.00 0.00 0.00 83 1021.0
20260503211017 15 0 3.2 4.8 0.00 0.00 0.00 83 1020.9
20260503210232 15 0 3.2 4.8 0.00 0.00 0.00 82 1021.0
20260503205017 15 23 3.2 6.4 0.00 0.00 0.00 82 1020.9
20260503204017 15 0 6.4 8.0 0.00 0.00 0.00 82 1020.9
20260503203231 16 338 6.4 8.0 0.00 0.00 0.00 81 1021.0
20260503202017 16 338 4.8 6.4 0.00 0.00 0.00 81 1020.9
20260503201232 16 338 4.8 6.4 0.00 0.00 0.00 80 1020.8
20260503200017 16 293 6.4 11.3 0.00 0.00 0.00 79 1020.9
20260503195017 16 270 8.0 12.9 0.00 0.00 0.00 79 1020.8
20260503194018 16 293 9.7 12.9 0.00 0.00 0.00 79 1020.8
20260503193017 16 293 6.4 12.9 0.00 0.00 0.00 79 1020.7
20260503192227 17 270 8.0 14.5 0.00 0.00 0.00 80 1020.6
20260503191017 17 270 9.7 14.5 0.00 0.00 0.00 79 1020.5
20260503190018 17 270 9.7 14.5 0.00 0.00 0.00 80 1020.5
20260503185016 17 270 11.3 14.5 0.00 0.00 0.00 80 1020.4
20260503184016 17 270 9.7 14.5 0.00 0.00 0.00 80 1020.3
20260503183016 17 293 8.0 12.9 0.00 0.00 0.00 79 1020.3
20260503182229 17 270 6.4 11.3 0.00 0.00 0.00 79 1020.1
20260503181228 17 270 6.4 11.3 0.00 0.00 0.00 79 1020.2
20260503180230 17 270 9.7 16.1 0.00 0.00 0.00 78 1020.1
20260503175016 17 293 9.7 14.5 0.00 0.00 0.00 78 1020.1
20260503174226 17 270 11.3 17.7 0.00 0.00 0.00 79 1020.2
20260503173018 17 270 12.9 17.7 0.00 0.00 0.00 78 1020.2
20260503172016 17 270 12.9 16.1 0.00 0.00 0.00 78 1020.1
20260503171016 17 270 11.3 17.7 0.00 0.00 0.00 78 1020.2
20260503170230 17 270 12.9 17.7 0.00 0.00 0.00 77 1020.2
20260503131018 18 270 17.7 22.5 0.00 0.00 0.00 73 1022.2
20260503081229 17 203 8.0 11.3 0.00 0.00 0.00 81 1022.8
20260503072017 17 225 4.8 8.0 0.00 0.00 0.00 81 1022.8
20260503071443 16 270 3.2 9.7 0.00 0.00 0.00 81 1022.8
20260503070227 16 225 6.4 8.0 0.00 0.00 0.00 79 1022.8
20260503055016 16 0.0 4.8 0.00 0.00 0.00 81 1022.8
20260503054017 16 0.0 0.0 0.00 0.00 0.00 81 1022.8
20260503053016 16 0.0 3.2 0.00 0.00 0.00 82 1022.6
20260503052016 15 23 1.6 3.2 0.00 0.00 0.00 82 1022.5
20260503051016 15 23 4.8 6.4 0.00 0.00 0.00 83 1022.4
20260503050016 15 23 4.8 6.4 0.00 0.00 0.00 83 1022.4
20260503045016 15 23 4.8 6.4 0.00 0.00 0.00 83 1022.3
20260503044230 15 23 6.4 6.4 0.00 0.00 0.00 84 1022.2
20260503043016 15 23 4.8 6.4 0.00 0.00 0.00 84 1022.2
20260503042021 15 23 3.2 4.8 0.00 0.00 0.00 84 1022.3
20260503041016 15 23 3.2 4.8 0.00 0.00 0.00 84 1022.1
20260503040016 15 23 4.8 6.4 0.00 0.00 0.00 84 1022.1
20260503035016 15 23 4.8 6.4 0.00 0.00 0.00 84 1022.1
20260503034016 15 23 1.6 6.4 0.00 0.00 0.00 84 1022.0
20260503033019 15 0 3.2 6.4 0.00 0.00 0.00 84 1022.0
20260503032016 15 0 3.2 4.8 0.00 0.00 0.00 83 1022.0
20260503031016 15 0 4.8 6.4 0.00 0.00 0.00 84 1021.9
20260503030016 15 0 6.4 8.0 0.00 0.00 0.00 83 1022.0
20260503025017 15 0 4.8 6.4 0.00 0.00 0.00 83 1022.3
20260503024015 15 0 4.8 6.4 0.00 0.00 0.00 83 1022.3
20260503023016 15 0 4.8 6.4 0.00 0.00 0.00 83 1022.3
20260503022016 15 0 4.8 8.0 0.00 0.00 0.00 82 1022.2
20260503021019 15 0 4.8 6.4 0.00 0.00 0.00 82 1022.4
20260503020021 15 0 1.6 3.2 0.00 0.00 0.00 81 1022.5
20260503015231 15 0 3.2 3.2 0.00 0.00 0.00 81 1022.4
20260503014019 15 0 3.2 4.8 0.00 0.00 0.00 81 1022.4
20260503013018 15 0 6.4 6.4 0.00 0.00 0.00 81 1022.3
20260503012018 15 0 4.8 4.8 0.00 0.00 0.00 81 1022.5
20260503011018 15 0 4.8 6.4 0.00 0.00 0.00 81 1022.4
20260503010017 15 0 4.8 6.4 0.00 0.00 0.00 80 1022.5
20260503005019 15 0 4.8 6.4 0.00 0.00 0.00 81 1022.7
20260503004232 15 0 3.2 4.8 0.00 0.00 0.00 81 1022.8